El Paso, TX

2:44 PM MDT on July 25, 2016 (GMT -0600)
El Paso International

Weather History for KELP - February, 2014

Change the Weather History Date:

Saturday, February 8, 2014

  Actual Average Record
Temperature  
Mean Temperature 57 °F 49 °F  
Max Temperature 67 °F 62 °F 79 °F (2015)
Min Temperature 46 °F 36 °F 13 °F (1971)
Degree Days  
Heating Degree Days 8 16  
Month to date heating degree days 145 137  
Since 1 July heating degree days 1701 1822  
Cooling Degree Days 0 0  
Month to date cooling degree days 0 0  
Year to date cooling degree days 0 0  
Growing Degree Days 6 (Base 50)    
Moisture  
Dew Point 23 °F    
Average Humidity 29    
Maximum Humidity 42    
Minimum Humidity 16    
Precipitation  
Precipitation 0.00 in 0.02 in 0.41 in (1965)
Month to date precipitation T 0.14  
Year to date precipitation T 0.54  
Snow  
Snow 0.00 in - - ()
Month to date snowfall 0.0  
Since 1 July snowfall T  
Snow Depth 0.00 in    
Sea Level Pressure  
Sea Level Pressure 30.03 in    
Wind  
Wind Speed 13 mph (WSW)    
Max Wind Speed 28 mph    
Max Gust Speed 36 mph    
Visibility 10 miles    
Events      
T = Trace of Precipitation, MM = Missing Value Source: NWS Daily Summary

Daily Weather History Graph

Daily Weather History Graph

Search for Another Location

Airport or City:

Trip Planner

Search our weather history database for the weather conditions in past years. The results will help you decide how hot, cold, wet, or windy it might be!

Date:

Astronomy

Feb. 08, 2014 Rise Set
Actual Time 6:53 AM MST 5:46 PM MST
Civil Twilight 6:28 AM MST 6:11 PM MST
Nautical Twilight 5:59 AM MST 6:40 PM MST
Astronomical Twilight 5:30 AM MST 7:08 PM MST
Moon 12:47 PM MST (2/8) 2:03 AM MST (2/8)
Length of Visible Light 11h 43m
Length of Day
10h 52m
Waxing Gibbous, 69% of the Moon is Illuminated
Feb 8
Waxing Gibbous
Feb 14
Full
Feb 22
Last Quarter
Mar 1
New
Mar 8
First Quarter

Hourly Weather History & Observations

Time (MST) Temp. Dew Point Humidity Pressure Visibility Wind Dir Wind Speed Gust Speed Precip Events Conditions
12:51 AM 53.1 °F 27.0 °F 37% 29.98 in 10.0 mi WNW 17.3 mph - N/A   Mostly Cloudy
1:51 AM 51.1 °F 27.0 °F 39% 29.99 in 10.0 mi West 12.7 mph - N/A   Scattered Clouds
2:51 AM 51.1 °F 26.1 °F 38% 29.99 in 10.0 mi West 21.9 mph - N/A   Partly Cloudy
3:51 AM 51.1 °F 26.1 °F 38% 29.98 in 10.0 mi West 16.1 mph - N/A   Partly Cloudy
4:51 AM 50.0 °F 25.0 °F 38% 29.97 in 10.0 mi West 18.4 mph - N/A   Partly Cloudy
5:51 AM 50.0 °F 25.0 °F 38% 30.00 in 10.0 mi West 20.7 mph - N/A   Scattered Clouds
6:51 AM 51.1 °F 24.1 °F 35% 30.02 in 10.0 mi West 20.7 mph 32.2 mph N/A   Mostly Cloudy
7:51 AM 51.1 °F 24.1 °F 35% 30.06 in 10.0 mi West 18.4 mph - N/A   Scattered Clouds
8:51 AM 48.9 °F 26.1 °F 41% 30.08 in 10.0 mi South 10.4 mph - N/A   Mostly Cloudy
9:51 AM 57.0 °F 23.0 °F 27% 30.08 in 10.0 mi West 17.3 mph 24.2 mph N/A   Scattered Clouds
10:01 AM 57.2 °F 23.0 °F 27% 30.19 in 10.0 mi West 17.3 mph 25.3 mph N/A   Scattered Clouds
10:51 AM 59.0 °F 19.9 °F 22% 30.10 in 10.0 mi West 9.2 mph 20.7 mph N/A   Mostly Cloudy
11:51 AM 60.1 °F 21.9 °F 23% 30.07 in 10.0 mi WSW 13.8 mph 21.9 mph N/A   Mostly Cloudy
12:51 PM 64.0 °F 19.9 °F 18% 30.01 in 10.0 mi West 11.5 mph 19.6 mph N/A   Scattered Clouds
1:51 PM 66.0 °F 19.9 °F 17% 29.98 in 10.0 mi WNW 11.5 mph 19.6 mph N/A   Partly Cloudy
2:51 PM 66.9 °F 21.0 °F 17% 29.98 in 10.0 mi West 12.7 mph - N/A   Scattered Clouds
3:51 PM 66.9 °F 21.9 °F 18% 29.99 in 10.0 mi West 11.5 mph - N/A   Scattered Clouds
4:51 PM 66.0 °F 21.0 °F 18% 30.00 in 10.0 mi West 8.1 mph - N/A   Mostly Cloudy
5:51 PM 63.0 °F 21.0 °F 20% 30.01 in 10.0 mi WSW 11.5 mph - N/A   Scattered Clouds
6:51 PM 60.1 °F 21.0 °F 22% 30.04 in 10.0 mi SW 8.1 mph - N/A   Scattered Clouds
7:51 PM 55.9 °F 21.9 °F 27% 30.05 in 10.0 mi SSW 4.6 mph - N/A   Scattered Clouds
8:51 PM 53.1 °F 21.9 °F 30% 30.07 in 10.0 mi SSE 4.6 mph - N/A   Partly Cloudy
9:51 PM 54.0 °F 21.9 °F 29% 30.05 in 10.0 mi South 6.9 mph - N/A   Partly Cloudy
10:51 PM 53.1 °F 21.0 °F 29% 30.05 in 10.0 mi South 5.8 mph - N/A   Partly Cloudy
11:51 PM 55.9 °F 19.9 °F 25% 30.03 in 10.0 mi South 12.7 mph - N/A   Clear